FW3881 Weather Reports


time (UTC)temp
C
wind
direction
speed
KPH
gust
KPH
rain 1hr
cm
rain 24hr
cm
rain mn
cm
humidity
%
barometer
mb
20260507140335 11 61 0.0 6.4 0.00 0.13 0.00 60 1013.4
20260507140010 10 125 1.6 6.4 0.00 0.15 0.00 61 1013.5
20260507135855 10 160 1.6 4.8 0.00 0.13 0.00 60 1013.5
20260507134744 10 56 1.6 6.4 0.00 0.15 0.00 58 1013.5
20260507134244 11 85 1.6 4.8 0.00 0.15 0.00 58 1013.6
20260507133717 11 267 1.6 14.5 0.00 0.18 0.00 60 1013.6
20260507133202 11 28 1.6 14.5 0.00 0.18 0.00 59 1013.7
20260507132703 10 297 1.6 4.8 0.00 0.18 0.00 60 1013.6
20260507132140 10 82 1.6 4.8 0.00 0.20 0.00 64 1013.6
20260507131643 10 95 1.6 4.8 0.00 0.23 0.00 65 1013.7
20260507131122 10 95 0.0 4.8 0.00 0.23 0.00 64 1013.7
20260507130846 10 319 0.0 3.2 0.00 0.25 0.00 65 1013.6
20260507130110 9 279 0.0 1.6 0.00 0.25 0.00 64 1013.6
20260507125607 9 5 0.0 4.8 0.00 0.28 0.00 69 1013.7
20260507125046 9 298 0.0 3.2 0.00 0.30 0.00 66 1013.7
20260507124740 8 313 0.0 4.8 0.00 0.30 0.00 70 1013.6
20260507123955 8 53 0.0 4.8 0.00 0.33 0.00 70 1013.6
20260507123455 8 93 0.0 4.8 0.00 0.33 0.00 68 1013.5
20260507122937 8 10 0.0 4.8 0.00 0.33 0.00 69 1013.5
20260507122418 8 52 0.0 4.8 0.00 0.36 0.00 70 1013.5
20260507122137 8 260 0.0 4.8 0.00 0.36 0.00 69 1013.5
20260507121349 8 48 0.0 3.2 0.00 0.38 0.00 73 1013.4
20260507121324 8 20 0.0 3.2 0.00 0.41 0.00 70 1013.3
20260507120613 8 79 0.0 0.0 0.00 0.41 0.00 72 1013.3
20260507115823 8 38 0.0 0.0 0.00 0.43 0.00 71 1013.4
20260507115324 8 38 0.0 0.0 0.00 0.46 0.00 72 1013.4
20260507115026 7 175 0.0 0.0 0.00 0.46 0.00 71 1013.4
20260507114528 7 205 0.0 0.0 0.00 0.51 0.00 73 1013.4
20260507114032 7 204 0.0 0.0 0.00 0.53 0.00 74 1013.4
20260507113237 7 204 0.0 0.0 0.00 0.53 0.00 73 1013.5
20260507112717 7 204 0.0 0.0 0.00 0.56 0.00 75 1013.4
20260507112150 7 205 0.0 0.0 0.00 0.58 0.00 75 1013.4
20260507111630 7 204 0.0 0.0 0.00 0.61 0.00 74 1013.5
20260507111129 7 209 0.0 0.0 0.00 0.61 0.00 72 1013.4
20260507110608 7 233 0.0 0.0 0.00 0.64 0.00 73 1013.3
20260507110041 7 233 0.0 0.0 0.00 0.64 0.00 72 1013.2
20260507105543 7 233 0.0 0.0 0.00 0.64 0.00 74 1013.2
20260507105240 7 233 0.0 3.2 0.00 0.64 0.00 75 1013.1
20260507104453 7 233 0.0 3.2 0.00 0.64 0.00 76 1013.0
20260507103924 7 233 0.0 3.2 0.00 0.64 0.00 75 1012.8
20260507103401 7 233 0.0 3.2 0.00 0.64 0.00 74 1012.9
20260507102830 7 231 0.0 4.8 0.00 0.64 0.00 75 1012.9
20260507102310 7 235 0.0 4.8 0.00 0.64 0.00 74 1012.9
20260507101806 7 254 0.0 4.8 0.00 0.64 0.00 76 1012.8
20260507101304 7 36 0.0 4.8 0.00 0.64 0.00 75 1012.7
20260507100737 7 271 0.0 0.0 0.00 0.64 0.00 77 1012.7
20260507100209 7 271 0.0 3.2 0.00 0.64 0.00 78 1012.4
20260507095707 7 85 0.0 0.0 0.00 0.64 0.00 78 1012.4
20260507095141 7 62 0.0 0.0 0.00 0.64 0.00 79 1012.4
20260507094635 7 70 0.0 0.0 0.00 0.64 0.00 81 1012.2
20260507094350 7 32 0.0 4.8 0.00 0.64 0.00 81 1012.3
20260507093626 7 32 0.0 4.8 0.00 0.64 0.00 81 1012.3
20260507093345 7 79 0.0 1.6 0.00 0.64 0.00 81 1012.3
20260507092618 7 79 0.0 1.6 0.00 0.64 0.00 81 1012.3
20260507092117 7 73 0.0 3.2 0.00 0.64 0.00 80 1012.3
20260507091547 7 73 0.0 3.2 0.00 0.64 0.00 81 1012.3
20260507091023 7 73 0.0 3.2 0.00 0.64 0.00 81 1012.3
20260507090517 8 71 0.0 3.2 0.00 0.64 0.00 81 1012.4
20260507090015 8 71 0.0 3.2 0.00 0.64 0.00 82 1012.4
20260507085739 8 71 0.0 4.8 0.00 0.64 0.00 83 1012.3
20260507084945 8 71 1.6 4.8 0.00 0.64 0.00 82 1012.3
20260507084446 8 26 1.6 4.8 0.00 0.64 0.00 85 1012.3
20260507083924 8 27 1.6 4.8 0.00 0.64 0.00 86 1012.2
20260507083616 8 25 0.0 3.2 0.00 0.64 0.00 87 1012.3
20260507082830 8 28 0.0 3.2 0.00 0.64 0.00 86 1012.3
20260507082301 8 29 0.0 3.2 0.00 0.64 0.00 86 1012.1
20260507082020 8 223 1.6 3.2 0.00 0.64 0.00 86 1012.1
20260507081255 8 223 1.6 3.2 0.00 0.64 0.00 85 1012.1
20260507080725 8 82 1.6 4.8 0.00 0.64 0.00 84 1012.0
20260507080223 8 82 1.6 4.8 0.00 0.64 0.00 84 1011.8
20260507075659 8 79 1.6 4.8 0.00 0.64 0.00 85 1011.6
20260507075127 8 285 1.6 6.4 0.00 0.64 0.00 84 1011.6
20260507074627 8 249 1.6 6.4 0.00 0.64 0.00 84 1011.7
20260507074057 8 33 1.6 6.4 0.00 0.64 0.00 85 1011.6
20260507073553 8 78 1.6 6.4 0.00 0.64 0.00 85 1011.6
20260507073054 8 56 1.6 6.4 0.00 0.64 0.00 85 1011.4
20260507072527 8 123 1.6 4.8 0.00 0.64 0.00 87 1011.5
20260507072001 8 15 1.6 3.2 0.00 0.64 0.00 87 1011.7
20260507071456 8 30 1.6 6.4 0.00 0.64 0.00 87 1012.0
20260507071214 8 42 1.6 6.4 0.00 0.64 0.00 86 1012.0
20260507070707 8 1 1.6 4.8 0.00 0.64 0.00 86 1012.2
20260507070211 8 357 1.6 4.8 0.00 0.64 0.00 86 1012.1
20260507065420 8 318 1.6 9.7 0.00 0.64 0.00 86 1012.2
20260507064916 8 317 1.6 9.7 0.00 0.64 0.00 86 1012.3
20260507064413 8 108 1.6 6.4 0.00 0.64 0.00 86 1012.2
20260507063910 8 65 1.6 4.8 0.00 0.64 0.00 86 1012.3
20260507063345 8 61 1.6 4.8 0.00 0.64 0.00 85 1012.2
20260507062839 8 97 1.6 9.7 0.00 0.64 0.00 87 1012.2
20260507062336 8 173 1.6 9.7 0.00 0.64 0.00 87 1012.1
20260507061834 9 25 1.6 4.8 0.00 0.64 0.00 88 1012.0
20260507061332 9 40 1.6 3.2 0.00 0.64 0.00 88 1012.1
20260507060804 9 40 1.6 4.8 0.00 0.64 0.00 88 1012.2
20260507060303 9 40 1.6 6.4 0.00 0.64 0.00 88 1012.1
20260507060013 9 315 1.6 6.4 0.00 0.64 0.00 88 1012.1
20260507055254 9 270 1.6 4.8 0.00 0.64 0.00 88 1012.1
20260507054726 9 38 1.6 6.4 0.00 0.64 0.00 88 1012.1
20260507054222 9 35 1.6 6.4 0.00 0.64 0.00 89 1012.0
20260507053721 9 65 1.6 4.8 0.00 0.64 0.00 88 1011.9
20260507053155 9 15 1.6 4.8 0.00 0.64 0.00 88 1012.2
20260507052626 9 15 1.6 4.8 0.00 0.64 0.00 88 1012.0
20260507052122 10 81 1.6 6.4 0.00 0.64 0.00 88 1012.0
20260507051616 9 81 1.6 6.4 0.00 0.64 0.00 88 1012.0
20260507051114 10 191 1.6 6.4 0.00 0.64 0.00 88 1012.0
20260507050807 9 106 1.6 6.4 0.00 0.64 0.00 87 1012.1
20260507050044 9 210 1.6 6.4 0.00 0.64 0.00 88 1012.0
20260507045516 9 155 1.6 4.8 0.00 0.64 0.00 89 1011.9
20260507045014 9 81 1.6 6.4 0.00 0.64 0.00 89 1012.0
20260507044446 9 65 1.6 6.4 0.00 0.64 0.00 90 1011.7
20260507043945 9 279 1.6 6.4 0.00 0.64 0.00 90 1011.7
20260507043423 9 84 1.6 6.4 0.00 0.64 0.00 90 1011.8
20260507042847 9 31 1.6 6.4 0.00 0.64 0.00 90 1011.8
20260507042609 10 15 1.6 4.8 0.00 0.64 0.00 91 1012.0
20260507041835 10 59 1.6 6.4 0.00 0.64 0.00 91 1012.2
20260507041330 10 160 1.6 8.0 0.00 0.64 0.00 91 1012.1
20260507040835 10 356 1.6 8.0 0.00 0.64 0.00 91 1012.1
20260507040327 10 319 1.6 4.8 0.00 0.64 0.00 91 1012.2
20260507035829 10 229 1.6 6.4 0.00 0.64 0.64 92 1011.9
20260507035328 10 107 1.6 6.4 0.00 0.64 0.64 92 1012.0
20260507034827 10 42 1.6 8.0 0.00 0.64 0.64 92 1011.9
20260507034325 10 41 1.6 8.0 0.00 0.64 0.64 92 1011.8
20260507033803 10 40 1.6 8.0 0.00 0.64 0.64 92 1012.1
20260507033240 10 298 1.6 8.0 0.00 0.64 0.64 92 1011.9
20260507033011 10 119 1.6 6.4 0.00 0.64 0.64 92 1012.1
20260507032225 10 5 1.6 6.4 0.00 0.64 0.64 92 1011.9
20260507031727 10 356 1.6 6.4 0.00 0.64 0.64 92 1012.0
20260507031223 10 281 3.2 9.7 0.00 0.64 0.64 92 1011.8
20260507030726 10 34 3.2 9.7 0.00 0.64 0.64 92 1012.0
20260507030202 10 151 1.6 9.7 0.00 0.64 0.64 92 1012.0
20260507025646 10 213 1.6 9.7 0.00 0.64 0.64 92 1012.0
20260507025143 10 73 1.6 9.7 0.00 0.64 0.64 93 1011.5
20260507024905 10 142 1.6 9.7 0.00 0.64 0.64 93 1011.4
20260507024133 10 313 3.2 9.7 0.00 0.64 0.64 93 1011.4
20260507023603 10 300 3.2 6.4 0.00 0.64 0.64 93 1011.2
20260507023042 11 334 1.6 6.4 0.00 0.64 0.64 94 1011.5
20260507022530 11 260 1.6 6.4 0.00 0.64 0.64 94 1011.5
20260507022029 11 128 1.6 6.4 0.00 0.64 0.64 94 1011.4
20260507021510 11 231 1.6 6.4 0.00 0.64 0.64 94 1011.4
20260507021011 11 183 3.2 11.3 0.00 0.64 0.64 94 1011.5
20260507020510 11 267 1.6 11.3 0.00 0.64 0.64 94 1011.4
20260507020005 11 309 1.6 4.8 0.00 0.64 0.64 94 1011.4
20260507015441 11 281 1.6 4.8 0.00 0.64 0.64 95 1011.5
20260507015201 11 322 1.6 3.2 0.00 0.64 0.64 95 1011.4
20260507014436 11 108 1.6 4.8 0.00 0.64 0.64 95 1011.4
20260507013913 11 314 3.2 6.4 0.00 0.64 0.64 95 1011.3
20260507013349 11 31 3.2 6.4 0.00 0.64 0.64 95 1011.4
20260507012822 11 329 3.2 6.4 0.00 0.64 0.64 95 1011.5
20260507012256 11 330 1.6 4.8 0.00 0.64 0.64 95 1011.3
20260507011741 11 249 1.6 4.8 0.00 0.64 0.64 95 1011.4
20260507011232 11 278 1.6 4.8 0.00 0.64 0.64 95 1011.6
20260507010730 11 278 1.6 6.4 0.00 0.64 0.64 95 1011.5
20260507010230 12 21 1.6 6.4 0.00 0.64 0.64 95 1011.6
20260507005730 12 193 1.6 4.8 0.00 0.64 0.64 95 1011.8
20260507005228 12 322 1.6 3.2 0.00 0.64 0.64 95 1011.9
20260507004730 12 344 1.6 3.2 0.00 0.64 0.64 96 1011.8
20260507004224 12 348 0.0 3.2 0.00 0.64 0.64 96 1011.5
20260507003722 12 223 0.0 4.8 0.00 0.64 0.64 95 1011.5
20260507003219 12 223 1.6 6.4 0.00 0.64 0.64 96 1011.4
20260507002718 12 223 1.6 6.4 0.00 0.64 0.64 96 1011.6
20260507002219 12 269 1.6 3.2 0.00 0.64 0.64 96 1011.5
20260507001714 13 269 1.6 6.4 0.00 0.64 0.64 96 1011.5
20260507001210 13 19 1.6 6.4 0.00 0.64 0.64 96 1011.3
20260507000710 13 25 1.6 3.2 0.00 0.64 0.64 96 1011.4
20260507000143 13 20 1.6 3.2 0.00 0.64 0.64 95 1011.2
20260506235618 13 19 1.6 4.8 0.00 0.64 0.64 96 1011.1
20260506235050 13 278 1.6 4.8 0.00 0.64 0.64 96 1010.9
20260506234549 14 23 1.6 4.8 0.00 0.64 0.64 96 1011.0
20260506234318 14 235 1.6 4.8 0.00 0.64 0.64 96 1011.0
20260506233817 15 291 1.6 4.8 0.00 0.64 0.64 96 1010.4
20260506233051 15 167 1.6 6.4 0.00 0.64 0.64 96 1010.2
20260506232554 15 167 1.6 6.4 0.00 0.64 0.64 96 1010.2
20260506232027 15 183 0.0 3.2 0.00 0.64 0.64 96 1010.3
20260506231501 15 185 1.6 3.2 0.00 0.64 0.64 96 1010.2
20260506230939 15 187 1.6 3.2 0.00 0.64 0.64 96 1010.1
20260506230430 15 187 1.6 4.8 0.00 0.64 0.64 96 1010.1
20260506225932 15 305 0.0 4.8 0.00 0.64 0.64 96 1010.2
20260506225401 15 255 0.0 4.8 0.00 0.64 0.64 96 1010.3
20260506224903 15 255 0.0 4.8 0.00 0.64 0.64 96 1010.2
20260506224342 15 215 0.0 3.2 0.00 0.64 0.64 96 1010.2
20260506223845 15 215 0.0 3.2 0.00 0.64 0.64 96 1010.1
20260506223340 15 216 0.0 3.2 0.00 0.64 0.64 96 1009.9
20260506222846 15 217 0.0 1.6 0.00 0.64 0.64 96 1010.0
20260506222318 15 217 0.0 1.6 0.00 0.64 0.64 96 1010.0
20260506221749 15 179 0.0 1.6 0.00 0.64 0.64 96 1010.1
20260506221244 15 179 0.0 1.6 0.00 0.64 0.64 96 1010.1
20260506220739 15 179 0.0 3.2 0.00 0.64 0.64 96 1010.0
20260506220217 15 179 0.0 3.2 0.00 0.64 0.64 96 1009.9
20260506215648 15 179 0.0 1.6 0.00 0.64 0.64 96 1009.9
20260506215638 15 179 0.0 6.4 0.00 0.64 0.64 96 1010.0
20260506214619 15 179 1.6 6.4 0.00 0.64 0.64 96 1009.9
20260506214117 15 149 1.6 4.8 0.00 0.64 0.64 96 1009.9
20260506213550 15 218 0.0 3.2 0.00 0.64 0.64 96 1009.8
20260506213021 15 227 0.0 3.2 0.00 0.64 0.64 96 1009.9
20260506212520 15 227 0.0 3.2 0.00 0.64 0.64 96 1009.8
20260506211951 15 227 0.0 1.6 0.00 0.64 0.64 96 1009.7
20260506211449 15 227 0.0 1.6 0.00 0.64 0.64 96 1009.6
20260506210944 15 229 0.0 3.2 0.00 0.64 0.64 96 1009.5
20260506210711 15 229 0.0 3.2 0.00 0.64 0.64 96 1009.4
20260506210403 15 247 0.0 3.2 0.00 0.64 0.64 96 1009.5
20260506205347 15 247 0.0 3.2 0.00 0.64 0.64 96 1009.4
20260506204823 15 247 1.6 4.8 0.00 0.64 0.64 96 1009.4
20260506204254 15 253 1.6 3.2 0.00 0.64 0.64 96 1009.4
20260506204014 15 237 0.0 3.2 0.00 0.64 0.64 96 1009.2
20260506203247 15 237 1.6 4.8 0.00 0.64 0.64 96 1009.3
20260506202742 15 233 0.0 4.8 0.00 0.64 0.64 96 1009.3
20260506202240 15 97 0.0 1.6 0.00 0.64 0.64 96 1009.4
20260506201732 15 97 0.0 1.6 0.00 0.64 0.64 96 1009.3
20260506201226 15 97 0.0 3.2 0.00 0.64 0.64 96 1009.4
20260506200955 15 97 0.0 3.2 0.00 0.64 0.64 96 1009.3
20260506200200 15 93 0.0 1.6 0.00 0.64 0.64 96 1009.3
20260506195703 15 93 0.0 3.2 0.03 0.64 0.64 96 1009.4
20260506195133 15 94 0.0 3.2 0.03 0.64 0.64 96 1009.4
20260506194604 15 93 0.0 6.4 0.03 0.64 0.64 96 1009.3
20260506194331 15 93 1.6 6.4 0.03 0.64 0.64 96 1009.3
20260506193535 15 227 1.6 4.8 0.03 0.64 0.64 96 1009.4
20260506193034 15 195 1.6 1.6 0.03 0.64 0.64 96 1009.4
20260506193005 15 195 1.6 3.2 0.03 0.64 0.64 96 1009.4
20260506192021 15 167 1.6 3.2 0.03 0.64 0.64 96 1009.5
20260506191458 15 142 1.6 3.2 0.03 0.64 0.64 96 1009.4
20260506190925 15 142 1.6 3.2 0.03 0.64 0.64 96 1009.5
20260506190404 15 140 0.0 3.2 0.03 0.64 0.64 96 1009.4
20260506185904 15 137 0.0 3.2 0.00 0.61 0.64 96 1009.5
20260506185402 15 137 1.6 6.4 0.00 0.61 0.61 96 1009.4
20260506184902 15 200 1.6 6.4 0.00 0.61 0.61 96 1009.5
20260506184359 14 203 1.6 6.4 0.00 0.61 0.61 96 1009.5
20260506183903 14 222 1.6 6.4 0.00 0.61 0.61 96 1009.5
20260506183342 14 296 1.6 6.4 0.00 0.61 0.61 96 1009.6
20260506183323 14 125 1.6 16.1 0.00 0.61 0.61 96 1009.5
20260506182600 14 123 3.2 16.1 0.00 0.61 0.61 96 1009.6
20260506181814 14 186 1.6 8.0 0.00 0.61 0.61 96 1009.5
20260506181315 15 233 1.6 8.0 0.00 0.61 0.61 96 1009.5
20260506180746 14 233 3.2 8.0 0.00 0.61 0.61 96 1009.5
20260506180509 14 160 1.6 6.4 0.00 0.61 0.61 96 1009.6
20260506175943 15 226 1.6 4.8 0.00 0.61 0.61 96 1009.5
20260506175214 15 203 1.6 4.8 0.00 0.61 0.61 96 1009.6
20260506174651 14 201 1.6 4.8 0.00 0.61 0.61 96 1009.6
20260506174149 14 222 1.6 6.4 0.00 0.61 0.61 96 1009.6
20260506173650 14 220 1.6 6.4 0.00 0.61 0.61 96 1009.6
20260506173151 14 227 1.6 11.3 0.00 0.61 0.61 96 1009.6
20260506172843 14 228 1.6 11.3 0.00 0.61 0.61 96 1009.5
20260506172121 14 158 1.6 6.4 0.00 0.61 0.61 96 1009.5
20260506171550 14 245 1.6 11.3 0.00 0.61 0.61 96 1009.5
20260506171021 14 190 3.2 11.3 0.00 0.61 0.61 96 1009.6
20260506170518 14 248 3.2 11.3 0.00 0.61 0.61 96 1009.5
20260506170013 14 223 3.2 11.3 0.00 0.61 0.61 96 1009.6
20260506165447 14 235 3.2 12.9 0.00 0.61 0.61 96 1009.6
20260506164941 14 181 1.6 12.9 0.00 0.61 0.61 96 1009.6
20260506164642 14 257 1.6 6.4 0.00 0.61 0.61 96 1009.5
20260506163846 13 154 1.6 16.1 0.00 0.61 0.61 96 1009.5
20260506163343 13 86 3.2 16.1 0.00 0.61 0.61 96 1009.6
20260506162818 13 226 3.2 14.5 0.00 0.61 0.61 96 1009.6
20260506162252 13 179 3.2 14.5 0.00 0.61 0.61 96 1009.6
20260506161727 13 178 1.6 12.9 0.00 0.61 0.61 96 1009.6
20260506161200 13 239 3.2 8.0 0.00 0.61 0.61 96 1009.4
20260506160701 13 200 3.2 8.0 0.00 0.61 0.61 96 1009.3
20260506160132 13 187 3.2 11.3 0.00 0.61 0.61 96 1009.5
20260506155630 13 239 3.2 11.3 0.00 0.61 0.61 95 1009.5
20260506155331 13 38 3.2 8.0 0.03 0.61 0.61 95 1009.8
20260506154540 13 190 3.2 9.7 0.03 0.61 0.61 95 1009.7
20260506154016 13 179 3.2 9.7 0.03 0.61 0.61 95 1009.8
20260506153448 13 208 3.2 9.7 0.05 0.61 0.61 95 1009.6
20260506152947 13 160 3.2 9.7 0.05 0.61 0.61 95 1009.6
20260506152419 13 238 4.8 16.1 0.08 0.61 0.61 95 1009.5
20260506151920 13 190 3.2 16.1 0.08 0.61 0.61 95 1009.5
20260506151400 13 224 3.2 8.0 0.08 0.61 0.61 95 1009.5
20260506150903 13 249 3.2 9.7 0.10 0.61 0.61 95 1009.4
20260506150402 13 250 3.2 9.7 0.10 0.61 0.61 95 1009.7
20260506145857 13 264 3.2 8.0 0.10 0.61 0.61 95 1009.7
20260506145401 13 185 3.2 8.0 0.10 0.58 0.58 95 1009.6
20260506144831 13 225 3.2 12.9 0.10 0.58 0.58 94 1009.5
20260506144330 13 192 3.2 12.9 0.10 0.58 0.58 94 1009.7
20260506143833 13 179 3.2 12.9 0.10 0.58 0.58 94 1009.7
20260506143314 13 209 3.2 9.7 0.10 0.56 0.56 94 1010.1
20260506143305 13 232 3.2 9.7 0.08 0.53 0.56 94 1010.1
20260506142310 13 219 3.2 9.7 0.10 0.53 0.53 94 1010.2
20260506141808 13 350 1.6 8.0 0.10 0.53 0.53 94 1010.1
20260506141244 13 255 3.2 14.5 0.10 0.51 0.51 94 1010.2